Change the Weather History Date:

Thursday, September 5, 2013

  Actual Average Record
Temperature  
Mean Temperature 66 °F -  
Max Temperature 87 °F 78 °F 90 °F (1953)
Min Temperature 48 °F 47 °F 31 °F (1961)
Cooling Degree Days 1    
Growing Degree Days 16 (Base 50)    
Moisture  
Dew Point 41 °F    
Average Humidity 48    
Maximum Humidity 89    
Minimum Humidity 14    
Precipitation  
Precipitation 0.00 in - - ()
Sea Level Pressure  
Sea Level Pressure 30.02 in    
Wind  
Wind Speed 2 mph (South)    
Max Wind Speed 10 mph    
Max Gust Speed -    
Visibility 10 miles    
Events      
Averages and records for this station are not official NWS values.
T = Trace of Precipitation, MM = Missing Value Source: NWS Daily Summary

Daily Weather History Graph

Daily Weather History Graph

Search for Another Location

Airport or City:

Trip Planner

Search our weather history database for the weather conditions in past years. The results will help you decide how hot, cold, wet, or windy it might be!

Date:

Astronomy

Sep. 05, 2013 Rise Set
Actual Time 6:51 AM MDT 7:37 PM MDT
Civil Twilight 6:25 AM MDT 8:03 PM MDT
Nautical Twilight 5:55 AM MDT 8:33 PM MDT
Astronomical Twilight 5:23 AM MDT 9:05 PM MDT
Moon 7:04 AM MDT (9/5) 7:34 PM MDT (9/5)
Length of Visible Light 13h 37m
Length of Day
12h 45m
New Moon, 0% of the Moon is Illuminated
Sep 5
New Moon
Sep 12
First Quarter
Sep 19
Full
Sep 26
Last Quarter
Oct 4
New

Hourly Weather History & Observations

Time (MDT) Temp. Dew Point Humidity Pressure Visibility Wind Dir Wind Speed Gust Speed Precip Events Conditions
12:53 AM 55.0 °F 50.0 °F 83% 30.02 in 10.0 mi Calm Calm - N/A   Clear
1:53 AM 54.0 °F 48.9 °F 83% 30.02 in 10.0 mi Calm Calm - N/A   Clear
2:53 AM 52.0 °F 48.0 °F 86% 30.04 in 10.0 mi Calm Calm - N/A   Clear
3:53 AM 52.0 °F 46.9 °F 83% 30.02 in 10.0 mi Calm Calm - N/A   Clear
4:53 AM 50.0 °F 46.0 °F 86% 30.03 in 10.0 mi Calm Calm - N/A   Clear
5:53 AM 48.9 °F 45.0 °F 86% 30.06 in 10.0 mi Calm Calm - N/A   Clear
6:53 AM 48.0 °F 45.0 °F 89% 30.07 in 10.0 mi Calm Calm - N/A   Clear
7:53 AM 52.0 °F 46.0 °F 80% 30.10 in 10.0 mi Calm Calm - N/A   Clear
8:53 AM 60.1 °F 48.0 °F 64% 30.09 in 10.0 mi Calm Calm - N/A   Clear
9:53 AM 71.1 °F 48.9 °F 45% 30.06 in 10.0 mi Calm Calm - N/A   Clear
10:53 AM 75.9 °F 45.0 °F 33% 30.05 in 10.0 mi Calm Calm - N/A   Clear
11:53 AM 78.1 °F 41.0 °F 27% 30.05 in 10.0 mi Variable 3.5 mph - N/A   Mostly Cloudy
12:53 PM 79.0 °F 39.9 °F 25% 30.04 in 10.0 mi NNE 5.8 mph - N/A   Mostly Cloudy
1:53 PM 82.9 °F 35.1 °F 18% 30.01 in 10.0 mi SSW 5.8 mph - N/A   Scattered Clouds
2:53 PM 84.9 °F 33.1 °F 16% 29.98 in 10.0 mi WSW 10.4 mph - N/A   Scattered Clouds
3:53 PM 84.9 °F 30.9 °F 14% 29.96 in 10.0 mi WSW 10.4 mph - N/A   Mostly Cloudy
4:53 PM 82.9 °F 30.0 °F 15% 29.97 in 10.0 mi Variable 5.8 mph - N/A   Mostly Cloudy
5:53 PM 84.0 °F 32.0 °F 15% 29.95 in 10.0 mi South 4.6 mph - N/A   Mostly Cloudy
6:53 PM 81.0 °F 36.0 °F 20% 29.97 in 10.0 mi SE 5.8 mph - N/A   Clear
7:53 PM 75.9 °F 37.0 °F 24% 29.98 in 10.0 mi Variable 4.6 mph - N/A   Overcast
8:53 PM 71.1 °F 39.0 °F 31% 29.98 in 10.0 mi South 3.5 mph - N/A   Mostly Cloudy
9:53 PM 70.0 °F 39.0 °F 32% 29.96 in 10.0 mi SSE 3.5 mph - N/A   Mostly Cloudy
10:53 PM 63.0 °F 42.1 °F 46% 29.99 in 9.0 mi Calm Calm - N/A   Partly Cloudy
11:53 PM 61.0 °F 39.9 °F 46% 30.00 in 9.0 mi Calm Calm - N/A   Partly Cloudy